LARES

Last updated on July 6, 2021, 3:43 p.m. UTC

1 38077U 12006A   21186.56401991 -.00000042  00000-0 -22076-4 0  9996
2 38077  69.4910 139.8227 0010907 297.9272  62.0650 12.54931112430389
UTC
Height (km)
Latitude
Longitude
Inclination
Orbital Period
UTC large
Height (km)
Speed (km/s)
/
Latitude / Longitude
Inclination (degrees)
Orbital Period (minutes)
Azimuth
Elevation
Range (km)
Doppler Factor
iOS Compass Heading
iOS Angle